Wind_Speed
18 15 11 8 11 14 11 10 8 8 8 8 7 8 10 12 12 12 11 11 11 11 11 12 13 13 12 12 13 14 15 15 15
24 21 17 13 10 13 15 13 12 11 10 10 10 10 11 12 14 14 14 13 13 13 13 13 14 14 14 15 15 16 17 17 17
28 25 23 20 15 13 15 17 15 14 14 13 12 12 13 14 15 16 16 15 15 15 16 15 16 15 15 16 17 17 19 20 20
32 32 27 24 21 18 15 17 20 19 17 16 16 15 15 15 16 17 18 19 18 18 18 18 18 18 17 17 18 19 20 21 23
32 33 33 29 25 23 20 18 20 23 22 20 19 19 19 18 18 19 20 21 21 21 21 21 21 21 20 20 20 21 22 22 23
39 37 34 34 33 28 25 22 21 22 24 24 22 21 22 22 21 21 22 23 23 24 24 24 24 24 24 23 23 24 24 24 25
34 37 40 36 33 33 31 30 24 23 23 25 25 25 24 24 25 24 24 24 25 25 26 26 27 27 27 27 25 26 28 27 26
28 29 33 38 38 34 32 34 30 27 26 26 27 28 27 26 27 27 26 26 26 26 27 28 28 29 29 29 28 28 29 29 30
30 30 31 34 38 39 40 36 33 31 30 29 28 30 30 29 29 29 29 28 28 28 29 29 29 30 31 32 31 31 30 30 30
31 29 29 33 34 39 39 38 33 34 34 33 32 31 32 33 32 32 31 31 31 31 31 30 30 31 32 33 35 34 33 32 31
34 33 34 32 34 38 41 43 47 45 43 38 35 34 34 34 35 36 35 34 34 35 34 32 32 32 33 34 38 36 36 36 34
40 39 37 34 34 33 36 38 40 40 41 41 40 39 39 38 37 38 38 38 37 37 36 35 35 34 34 36 39 38 38 39 38
46 44 40 41 37 34 31 38 44 45 43 43 43 44 42 42 42 40 39 40 41 40 40 39 37 37 38 39 39 38 39 39 39
49 46 43 41 43 41 42 38 40 44 44 45 48 49 46 44 44 43 42 42 43 43 43 42 41 41 40 41 41 41 41 39 41
53 47 46 46 42 44 42 38 46 45 45 47 54 45 45 47 46 45 45 45 46 46 45 44 44 44 43 43 44 43 43 42 44
54 52 50 47 46 41 45 43 49 43 50 52 56 49 53 49 45 49 52 50 49 49 48 47 46 48 47 45 46 44 47 48 48
56 53 50 48 48 48 46 48 49 53 53 54 61 58 56 57 60 57 55 55 56 52 51 49 51 51 50 46 48 54 52 53 51
54 53 51 51 51 50 51 51 52 53 55 55 55 59 55 57 56 52 56 63 58 51 54 52 52 53 51 53 58 60 59 55 54
55 54 55 55 54 53 56 56 57 57 56 58 59 61 60 57 60 60 52 58 63 56 58 59 54 56 61 64 66 57 58 58 54
54 55 56 56 54 57 58 59 58 61 60 59 62 65 70 73 63 63 57 68 68 66 62 64 60 64 62 65 58 59 62 57 49
Wind_Direction
263 268 270 279 259 259 262 246 256 263 270 266 255 245 237 237 241 247 258 268 281 289 299 306 312 320 322 324 330 336 340 342 341
259 259 264 265 273 257 258 258 255 264 262 263 258 250 244 240 243 244 247 257 273 282 289 297 303 310 317 319 325 330 332 337 337
257 258 257 260 262 263 252 252 253 257 268 262 260 258 253 250 247 249 253 256 265 275 284 290 296 303 310 311 316 321 323 328 329
259 260 255 254 259 260 259 251 249 255 260 271 263 259 256 254 253 252 253 257 262 270 276 282 288 293 298 303 308 313 316 320 322
258 257 261 257 252 259 260 259 253 249 255 261 271 267 263 256 255 255 254 255 261 268 274 279 283 287 291 297 300 304 307 310 314
259 260 259 262 257 249 256 257 257 254 252 256 262 268 267 265 260 258 257 258 260 266 272 277 281 285 287 289 294 298 300 304 310
261 262 261 260 263 259 248 252 253 256 257 257 257 261 267 267 267 262 260 261 262 266 271 275 278 281 285 288 291 295 298 300 303
266 263 261 262 258 259 256 252 250 254 258 258 259 259 261 267 268 267 265 265 265 266 269 272 276 280 283 287 290 290 292 297 303
265 269 266 259 257 258 260 258 248 252 255 258 258 258 260 262 265 266 266 265 265 266 267 271 275 279 281 283 285 288 289 293 297
260 259 265 265 260 258 256 251 252 255 255 255 258 258 258 259 262 264 264 264 265 267 269 271 273 276 280 284 286 285 289 290 292
251 252 256 261 259 262 258 251 259 264 259 256 255 255 256 257 258 262 264 264 265 266 268 270 272 273 277 282 283 286 288 290 291
248 251 252 256 257 259 264 258 256 259 259 253 253 254 256 256 256 258 261 263 264 265 267 268 270 272 273 276 279 284 287 289 291
246 247 250 253 258 259 256 262 257 260 260 257 255 255 256 256 258 257 258 260 262 264 265 266 267 270 271 273 277 283 284 287 290
246 247 249 252 254 260 264 259 261 259 259 260 259 261 256 256 257 259 260 260 262 264 265 267 268 269 271 273 277 279 282 287 291
251 249 248 249 253 257 264 248 258 266 265 265 260 261 260 259 258 262 260 260 260 261 264 266 268 268 269 270 272 278 282 287 292
252 250 250 248 249 254 257 262 252 247 256 254 263 258 257 269 251 256 257 258 259 260 261 262 264 267 267 268 273 275 278 284 287
251 250 251 250 250 252 254 257 258 253 254 258 258 262 259 271 264 267 250 255 251 256 258 261 263 265 265 266 268 271 278 283 284
249 249 249 250 251 253 255 255 259 258 255 255 256 259 267 266 267 270 259 261 255 255 258 259 261 264 265 264 264 268 274 280 283
249 249 251 252 256 255 254 254 259 261 259 255 256 253 258 260 263 268 270 273 273 256 256 254 256 260 262 268 271 271 274 275 283
249 250 251 252 253 254 257 259 258 260 263 261 257 259 255 256 261 260 271 271 280 261 258 261 260 258 265 270 277 272 275 283 285
Height
5877 5877 5877 5877 5876 5877 5877 5877 5877 5877 5877 5876 5876 5875 5875 5875 5874 5875 5875 5875 5875 5874 5873 5872 5871 5870 5868 5867 5866 5865 5863 5862 5860
5873 5874 5874 5874 5874 5874 5874 5875 5875 5875 5875 5875 5874 5874 5873 5873 5873 5872 5872 5872 5872 5872 5871 5870 5869 5868 5867 5866 5865 5863 5862 5860 5858
5866 5869 5870 5871 5871 5871 5871 5872 5872 5872 5872 5872 5872 5872 5872 5871 5871 5871 5871 5870 5869 5869 5869 5868 5867 5866 5866 5864 5863 5861 5859 5858 5855
5862 5862 5865 5866 5867 5867 5868 5868 5868 5869 5869 5869 5869 5869 5869 5869 5868 5868 5868 5868 5867 5866 5866 5866 5865 5864 5863 5861 5860 5859 5857 5855 5853
5856 5858 5859 5860 5862 5863 5863 5864 5864 5865 5865 5866 5866 5866 5866 5865 5865 5865 5864 5864 5865 5864 5863 5862 5862 5861 5860 5859 5857 5855 5853 5851 5849
5851 5852 5854 5855 5856 5857 5858 5859 5860 5860 5860 5861 5862 5862 5862 5862 5862 5861 5861 5861 5860 5860 5860 5859 5858 5857 5856 5855 5854 5852 5850 5848 5846
5844 5845 5848 5850 5851 5852 5852 5853 5854 5855 5856 5856 5857 5857 5857 5858 5858 5857 5857 5857 5856 5856 5856 5855 5854 5853 5852 5851 5850 5848 5846 5844 5842
5838 5839 5840 5842 5844 5845 5846 5847 5848 5849 5851 5851 5851 5852 5852 5853 5853 5853 5853 5852 5852 5851 5851 5851 5850 5849 5848 5846 5845 5843 5841 5840 5838
5833 5833 5834 5834 5836 5838 5840 5841 5841 5842 5843 5844 5845 5845 5846 5846 5846 5847 5847 5847 5846 5846 5845 5845 5844 5844 5842 5841 5839 5837 5835 5834 5833
5828 5827 5828 5828 5828 5830 5831 5833 5835 5836 5836 5837 5838 5839 5839 5840 5840 5840 5841 5841 5841 5840 5840 5840 5839 5838 5837 5836 5834 5832 5830 5829 5828
5820 5820 5821 5822 5821 5821 5822 5824 5826 5828 5830 5830 5830 5831 5832 5833 5834 5834 5835 5835 5835 5834 5834 5834 5833 5831 5831 5830 5827 5826 5825 5823 5822
5810 5812 5814 5815 5815 5813 5813 5815 5817 5818 5820 5822 5822 5823 5824 5826 5826 5827 5827 5828 5827 5827 5827 5827 5825 5825 5824 5823 5821 5821 5819 5818 5816
5800 5803 5806 5808 5808 5807 5806 5806 5808 5809 5811 5814 5815 5814 5815 5816 5818 5818 5819 5820 5820 5820 5819 5818 5818 5817 5816 5815 5814 5814 5812 5810 5810
5789 5793 5797 5799 5800 5800 5799 5799 5800 5800 5802 5805 5805 5806 5808 5808 5809 5810 5811 5811 5812 5812 5811 5811 5811 5809 5809 5807 5806 5806 5804 5803 5802
5779 5783 5786 5788 5790 5791 5792 5792 5794 5793 5794 5794 5794 5796 5799 5800 5801 5802 5802 5802 5802 5802 5803 5803 5802 5801 5800 5798 5797 5797 5797 5796 5794
5768 5772 5775 5778 5780 5782 5782 5782 5783 5784 5782 5784 5786 5787 5787 5789 5790 5791 5791 5791 5791 5792 5793 5793 5792 5792 5791 5790 5790 5789 5788 5787 5787
5758 5762 5766 5768 5770 5771 5773 5773 5772 5773 5774 5773 5775 5776 5778 5779 5779 5775 5778 5779 5778 5780 5782 5782 5782 5782 5781 5781 5780 5781 5780 5778 5778
5748 5751 5754 5756 5759 5761 5761 5762 5761 5761 5763 5764 5763 5764 5767 5768 5767 5764 5766 5764 5765 5767 5770 5770 5771 5771 5771 5769 5768 5770 5771 5770 5768
5737 5740 5742 5746 5747 5750 5750 5750 5750 5749 5750 5751 5752 5753 5754 5754 5756 5756 5756 5755 5754 5753 5756 5757 5758 5759 5757 5758 5758 5759 5760 5759 5759
5727 5730 5733 5736 5737 5737 5738 5739 5739 5739 5738 5740 5740 5740 5741 5741 5743 5745 5744 5742 5740 5740 5741 5743 5744 5744 5745 5746 5748 5748 5748 5749 5748